Location: Belfast
(54.5830°N, 5.9330°W)
Time: 13:29:57
(UTC+00:00)

ISS - Pass Details

Date: 09 November 2018
Orbit: 401 x 408 km, 51.6° (Epoch: 16 November)

Event Time Altitude Azimuth Distance (km) Brightness Sun altitude
Exits shadow 04:15:53 12° 104° (ESE) 1,343 -0.5 -29.7°
Drops below altitude 10° 04:16:04 11° 104° (ESE) 1,417 -0.4 -29.7°
Sets 04:18:18 0° 98° (E) 2,326 1.0 -29.4°
